Location: Drawsko Pomorskie
(53.5317°N, 15.8111°E)
Time: 08:24:23
(UTC+01:00)

Envisat - Pass Details

Date: 21 October 2019
Orbit: 764 x 766 km, 98.1° (Epoch: 17 November)

Event Time Altitude Azimuth Distance (km) Brightness Sun altitude
Rises 20:35:12 0° 221° (SW) 3,226 6.5 -25.4°
Reaches altitude 10° 20:38:47 10° 247° (WSW) 2,307 6.1 -25.9°
Maximum altitude 20:41:13 13° 276° (W) 2,079 6.1 -26.2°
Drops below altitude 10° 20:43:40 10° 305° (NW) 2,314 6.4 -26.6°
Sets 20:47:18 0° 332° (NNW) 3,247 6.9 -27.1°
